Location: 476 Grange Obs.
(45.1420°N, 7.1420°E)
Time: 10:29:40
(UTC+02:00)

ISS - Visible Passes

Search period start: 09 May 2021 00:00
Search period end: 19 May 2021 00:00
Orbit: 418 x 421 km, 51.6° (Epoch: 09 May)

Date Brightness Start Highest point End Pass type
(mag) Time Alt. Az. Time Alt. Az. Time Alt. Az.
09 May -1.0 02:03:26 16° NE 02:03:26 16° NE 02:04:14 10° ENE visible
09 May -1.7 03:36:22 18° NW 03:38:07 27° N 03:41:05 10° NE visible
09 May -2.0 05:12:27 10° NW 05:15:33 33° NNE 05:18:40 10° E visible
10 May -2.0 02:50:22 30° NNW 02:50:32 30° N 02:53:35 10° NE visible
10 May -1.7 04:25:00 10° NW 04:27:59 28° N 04:30:59 10° ENE visible
11 May -1.5 02:04:20 25° NNE 02:04:20 25° NNE 02:06:08 10° NE visible
11 May -1.6 03:37:28 10° NW 03:40:23 26° N 03:43:19 10° ENE visible
11 May -3.0 05:14:20 10° NW 05:17:40 55° NNE 05:21:01 10° ESE visible
12 May -0.8 01:18:15 13° NE 01:18:15 13° NE 01:18:42 10° NE visible
12 May -1.5 02:51:11 18° NW 02:52:46 26° N 02:55:41 10° ENE visible
12 May -2.4 04:26:56 10° NW 04:30:09 41° NNE 04:33:23 10° E visible
13 May -1.6 02:05:00 27° NNW 02:05:10 27° N 02:08:07 10° NE visible
13 May -2.0 03:39:30 10° NW 03:42:36 33° NNE 03:45:43 10° E visible
13 May -3.8 05:16:15 10° WNW 05:19:37 67° SSW 05:22:57 10° SE visible
14 May -1.5 01:18:35 25° NNE 01:18:35 25° NNE 01:20:36 10° NE visible
14 May -1.7 02:52:01 10° NW 02:55:01 28° N 02:58:01 10° ENE visible
14 May -3.7 04:28:47 10° WNW 04:32:11 81° NNE 04:35:33 10° ESE visible
14 May -3.8 22:49:45 10° SW 22:53:03 56° SE 22:55:36 16° ENE visible
15 May -2.1 00:26:51 10° W 00:29:59 35° NNW 00:33:08 10° NE visible
15 May -1.5 02:04:29 10° NW 02:07:25 26° N 02:10:20 10° ENE visible
15 May -3.1 03:41:21 10° NW 03:44:41 55° NNE 03:48:01 10° ESE visible
15 May -2.7 05:18:28 10° W 05:21:20 26° SW 05:24:11 10° SSE visible
15 May -3.2 22:02:35 10° SSW 22:05:40 35° SE 22:08:46 10° ENE visible
15 May -2.6 23:39:11 10° W 23:42:26 45° NNW 23:45:42 10° NE visible
16 May -1.5 01:16:53 10° WNW 01:19:47 26° N 01:22:41 10° ENE visible
16 May -2.4 02:53:56 10° NW 02:57:09 41° NNE 03:00:23 10° E visible
16 May -3.4 04:30:47 10° WNW 04:33:59 41° SW 04:37:11 10° SSE visible
16 May -3.3 22:51:35 10° WSW 22:54:55 63° NNW 22:58:16 10° ENE visible
17 May -1.6 00:29:13 10° WNW 00:32:10 27° N 00:35:06 10° NE visible
17 May -2.0 02:06:29 10° NW 02:09:35 33° NNE 02:12:42 10° E visible
17 May -3.9 03:43:14 10° WNW 03:46:36 66° SSW 03:49:56 10° SE visible
17 May -3.8 22:04:04 10° WSW 22:07:26 88° SSE 22:10:49 10° ENE visible
17 May -1.7 23:41:31 10° WNW 23:44:32 30° N 23:47:34 10° NE visible
18 May -1.7 01:18:59 10° NW 01:21:59 28° N 01:22:50 25° NE visible
18 May -2.1 22:53:49 10° W 22:56:56 35° NNW 23:00:05 10° NE visible
